Other Public Products
Issued by NWS Grand Forks, ND

Home | Current Version | Previous Version | Graphics & Text | Print | Product List | Glossary On
Versions: 1 2 3 4 5 6 7 8 9 10 11 12 13 14 15 16 17 18 19 20 21 22 23 24 25 26 27 28 29 30 31 32 33 34 35 36 37 38 39 40 41 42 43 44 45 46 47 48 49 50
000
FPUS83 KFGF 291010
OPUFGF
PRAIRIE TO PINES WEATHER ROUNDUP
NATIONAL WEATHER SERVICE EASTERN NORTH DAKOTA/GRAND FORKS ND
500 AM CDT FRI MAY 29 2015

 **SATELLITE DATA USED TO AUGMENT SKY COVER AT AUTOMATED STATIONS**
 *****  WEATHER ACROSS EASTERN NORTH DAKOTA  *****

CITY           SKY/WX    TMP DP  RH WIND       PRES   REMARKS
GRAND FORKS    CLOUDY    49  45  86 N24G38    29.97R
GRAND FORKS AF CLOUDY    48  44  84 N24G32    29.99R
GRAND CITY NWS   N/A     48 N/A N/A N5          N/A
BUXTON         NOT AVBL
DEVILS LAKE    CLOUDY    48  37  66 N25G31    30.04R
FARGO          CLOUDY    55  52  89 N26G35    29.90R
WAHPETON ARPT  CLOUDY    59  55  88 NW3       29.87S
$$

 *****  WEATHER ACROSS CENTRAL AND WESTERN NORTH DAKOTA  *****

CITY           SKY/WX    TMP DP  RH WIND       PRES   REMARKS
JAMESTOWN      CLOUDY    53  49  86 N25       29.97R
BISMARCK       CLOUDY    52  47  83 N16G22    30.08R
MINOT          CLOUDY    47  38  71 N21G26    30.14R
MINOT AFB      CLOUDY    47  47  99 N16G22    30.14R
GARRISON         N/A     48  41  76 N16G24    30.12R
WILLISTON      CLOUDY    45  34  65 N14       30.23S
DICKINSON      CLOUDY    46  43  89 N17G25    30.14R
HETTINGER      CLOUDY    47  44  90 N18G29    30.11R
$$

 *****  OTHER OBSERVATIONS NORTHEAST NORTH DAKOTA  *****

CITY           SKY/WX    TMP DP  RH WIND       PRES   REMARKS
WALHALLA         N/A     45  45 100 MISG      30.07S
LANGDON        CLOUDY    45  41  87 N21G26    30.06R
CAVALIER       NOT AVBL
GRAFTON        CLOUDY    46  46 100 N28G36    30.00R
CANDO          CLOUDY    46  41  81 N20G26    30.09R
FORT TOTTEN      N/A     48  44  87 N8        29.95S
ROLLA          PTSUNNY   41  41 100 N23G30    30.10R
RUGBY          NOT AVBL
 ***** THE ABOVE OBSERVATIONS ARE NON NWS ARE NOT QUALITY
        CONTROLLED AND MAY MIS-REPORT RAIN FOR SNOW...
$$

 *****  OTHER OBSERVATIONS SOUTHEAST NORTH DAKOTA *****

CITY           SKY/WX    TMP DP  RH WIND       PRES   REMARKS
COOPERSTOWN    NOT AVBL
VALLEY CITY    CLOUDY    52  52 100 N24G30    29.95R
OAKES            N/A     57  57 100 N22       29.91R FOG
GWINNER        NOT AVBL
SHEYENNE NWR     N/A     59  58  96 N13       29.95
BUFFALO        NOT AVBL
WYNDMERE       NOT AVBL
 ***** THE ABOVE OBSERVATIONS ARE NON NWS ARE NOT QUALITY
       CONTROLLED AND MAY MIS-REPORT RAIN FOR SNOW...
$$

  *****  WEATHER ACROSS NORTHERN MINNESOTA  *****

CITY           SKY/WX    TMP DP  RH WIND       PRES   REMARKS
FLAG ISLAND    CLOUDY    54  48  82 N24       29.90R
WARROAD        CLOUDY    48  45  87 NW17G23   29.93R
ROSEAU         CLOUDY    50  45  81 N18G24    29.94R
HALLOCK        CLOUDY    46  43  87 N29G36    29.99R
THF RVR FALLS  CLOUDY    52  50  93 N21G29    29.93R
HALSTAD        NOT AVBL
FOSSTON        LGT RAIN  55  54  94 N16       29.89R
BAUDETTE       CLOUDY    57  54  89 N14       29.86S
WASKISH        LGT RAIN  57  57 100 N12G20    29.85R
CROOKSTON      CLOUDY    50  46  87 N25G32    29.95R
$$
  *****  WEATHER ACROSS CENTRAL AND WEST MINNESOTA  *****

CITY           SKY/WX    TMP DP  RH WIND       PRES   REMARKS
BEMIDJI        LGT RAIN  58  58  97 W7        29.85R
PARK RAPIDS    CLOUDY    59  57  93 N3        29.85S
WADENA         CLOUDY    57  57 100 CALM      29.85F FOG
DETROIT LAKES  CLOUDY    61  59  94 W3        29.88R
MOORHEAD       LGT RAIN  55  54  94 N23G31    29.91R
FERGUS FALLS   DRIZZLE   61  61 100 N7        29.87R
ELBOW LAKE     PTSUNNY   59  59  99 CALM      29.86R
MORRIS MN      LGT RAIN  61  59  94 N7        29.83F
STAPLES        CLOUDY    59  57  94 CALM      29.86S
WHEATON        CLOUDY    57  57 100 NW7       29.88S
$$
  *****  WEATHER ELSEWHERE ACROSS MINNESOTA  *****

CITY           SKY/WX    TMP DP  RH WIND       PRES   REMARKS
DULUTH         MOCLDY    52  47  83 S7        29.86F
INTRNTL FALLS  LGT RAIN  59  58  96 W6        29.81F
ELY            NOT AVBL
CLOQUET        MOCLDY    45  43  93 E3        29.85F
BRAINERD       CLOUDY    61  57  87 CALM      29.85R
HIBBING        CLOUDY    51  48  89 CALM      29.85R
ALEXANDRIA     CLOUDY    60  58  92 NW3       29.86S
SAINT CLOUD    MOCLDY    62  59  90 S7        29.82F
MINNEAPOLIS    LGT RAIN  65  62  90 CALM      29.87R
$$

  *****  WEATHER ACROSS SOUTH DAKOTA  *****

CITY           SKY/WX    TMP DP  RH WIND       PRES   REMARKS
SIOUX FALLS    CLOUDY    65  63  93 S13       29.84R
BROOKINGS      CLOUDY    63  57  82 E6        29.83F
WATERTOWN      CLOUDY    60  58  92 CALM      29.85S
HURON            N/A    N/A N/A N/A MISG      29.81F
SISSETON         N/A     60  59  96 N8        29.85R
ABERDEEN       CLOUDY    62  60  93 N8        29.88R
MITCHELL       LGT RAIN  63  60  90 SW12      29.83R
PIERRE         HVY RAIN  60  59  96 N20       29.91R FOG
MOBRIDGE       CLOUDY    57  55  93 N21G32    29.94R
RAPID CITY     CLOUDY    56  52  86 N16       30.05R
$$

  *****  SOME WEATHER IN NEARBY STATES *****

CITY           SKY/WX    TMP DP  RH WIND       PRES   REMARKS
GLASGOW MT     CLEAR     37  33  85 NE8       30.28S
GREAT FALLS MT CLOUDY    45  44  97 NE3       30.31S FOG
CHEYENNE WY    MOCLDY    47  40  76 W7        30.16S
SCOTTSBLUFF NE CLEAR     51  49  92 W7        30.08R
OMAHA NE       CLOUDY    66  63  90 S13       29.87F
DES MOINES IA  PTCLDY    63  61  93 S8        29.93S
DAVENPORT IA   CLOUDY    68  62  81 S8        29.97F
CHICAGO IL     CLOUDY    65  60  84 SE6       30.01F
EAU CLAIRE WI  CLOUDY    63  59  87 S5        29.91F
LA CROSSE WI   CLOUDY    65  60  84 SE8       29.93F
$$

  *****  SOME NATIONAL WEATHER *****

CITY           SKY/WX    TMP DP  RH WIND       PRES   REMARKS
LA GUARDIA NY  PTCLDY    65  53  65 NE6       30.27R
RALEIGH NC     PTCLDY    68  64  87 CALM      30.21R
ATLANTA GA     MOCLDY    67  65  93 E3        30.17R
NEW ORLEANS LA MOCLDY    76  71  85 SE3       30.04R
OKLAHOMA CITY  CLOUDY    66  61  84 S10G17    29.93R
ALBUQUERQUE NM CLEAR     61  34  36 NW3       30.11R
SALT LAKE CITY CLEAR     53  43  68 SE7       30.15S
LOS ANGELES CA CLOUDY    59  56  89 S3        29.95F
BOISE ID       CLEAR     60  47  61 SE8       30.07S
SEATTLE WA     PTCLDY    58  53  84 CALM      30.00R
$$

*** WEATHER ACROSS MANITOBA...SASKATCHEWAN AND ONTARIO ***
                ***ONTARIO***

CITY           SKY/WX    TMP DP  RH WIND       PRES   REMARKS
GERALDTON      MOCLDY    52  52 100 S5        29.85F
THUNDER BAY    MOCLDY    46  45  93 NE5       29.87S FOG
SIOUX LOOKOUT  LGT RAIN  54  54 100 N9        29.84R
TORONTO        MOCLDY    61  52  72 N2        30.25R
BIG TROUT LK   LGT RAIN  36  36 100 NE7       29.98
PICKLE LAKE    NOT AVBL
DRYDEN         CLOUDY    54  52  94 N7        29.85R
KENORA         CLOUDY    50  48  93 N13G18    29.91R
$$
                *** MANITOBA***

CITY           SKY/WX    TMP DP  RH WIND       PRES   REMARKS
BRANDON        CLOUDY    45  34  65 N23       30.17R
DAUPHIN        MOCLDY    41  37  87 N16G23    30.22R
ISLAND LAKE    NOT AVBL
PILOT MOUND      N/A     43  37  81 N21         N/A
THE PAS        PTCLDY    34  25  69 N15G21    30.33R WCI  24
THOMPSON       FLURRIES  27  23  86 N13       30.30R WCI  16
WINNIPEG       CLOUDY    41  37  87 N24       30.08R
LYNN LAKE      CLEAR     25  23  93 N8        30.38R WCI  16
CHURCHILL      FLURRIES  27  21  80 E10G18    30.40S WCI  17
GILLAM         SNOW      25  25 100 NE13G26   30.26S VSB 1/2 WCI  13
$$
                ***SASKATCHEWAN***

CITY           SKY/WX    TMP DP  RH WIND       PRES   REMARKS
ESTEVAN        CLOUDY    43  32  65 N14G21    30.24S
KINDERSLEY     MOCLDY    36  30  80 NE9       30.34S
LLOYDMINSTER   PTCLDY    34  27  75 SE6       30.35S
PRINCE ALBERT  PTCLDY    27  25  93 NE2       30.39R
REGINA         CLOUDY    41  28  60 NE15      30.32S


USA.gov is the U.S. government's official web portal to all federal, state and local government web resources and services.